Weather History for Chitose AB, Japan

Change the Weather History Date:

Saturday, February 16, 2013

  Actual Average Record
Temperature  
Mean Temperature 16 °F -  
Max Temperature 23 °F 33 °F 42 °F (1999)
Min Temperature 10 °F 14 °F -4 °F (2001)
Degree Days  
Heating Degree Days 48    
Moisture  
Dew Point 14 °F    
Average Humidity 81    
Maximum Humidity 100    
Minimum Humidity 43    
Precipitation  
Precipitation 0.00 in - - ()
Sea Level Pressure  
Sea Level Pressure 29.88 in    
Wind  
Wind Speed 9 mph ()    
Max Wind Speed 25 mph    
Max Gust Speed 37 mph    
Visibility 3.3 miles    
Events Snow    
Averages and records for this station are not official NWS values.
T = Trace of Precipitation, MM = Missing Value Source: Averaged Metar Reports

Daily Weather History Graph

Daily Weather History Graph

Search for Another Location

Airport:

Trip Planner

Search our weather history database for the weather conditions in past years. The results will help you decide how hot, cold, wet, or windy it might be!

Date:

Astronomy

Feb. 16, 2013 Rise Set
Actual Time 6:29 AM JST 5:05 PM JST
Civil Twilight 6:00 AM JST 5:34 PM JST
Nautical Twilight 5:27 AM JST 6:07 PM JST
Astronomical Twilight 4:54 AM JST 6:40 PM JST
Moon 9:08 AM JST (2/16) 11:37 PM JST (2/16)
Length of Visible Light 11h 34m
Length of Day
10h 36m
Waxing Crescent, 34% of the Moon is Illuminated
Feb 16
Waxing Crescent
Feb 18
First Quarter
Feb 26
Full
Mar 5
Last Quarter
Mar 12
New

Hourly Weather History & Observations

Time (JST) Temp. Windchill Dew Point Humidity Pressure Visibility Wind Dir Wind Speed Gust Speed Precip Events Conditions
12:00 AM 19.4 °F 14.3 °F 14.0 °F 80% 29.74 in 6.2 mi South 3.5 mph - N/A   Mostly Cloudy
12:30 AM 19.4 °F 14.3 °F 14.0 °F 80% 29.74 in 6.2 mi SSE 3.5 mph - N/A   Mostly Cloudy
1:00 AM 19.4 °F 14.3 °F 14.0 °F 80% 29.74 in 6.2 mi WNW 3.5 mph - N/A   Mostly Cloudy
1:30 AM 21.2 °F 16.4 °F 14.0 °F 74% 29.74 in 6.2 mi NNW 3.5 mph - N/A Snow Light Snow Showers
2:00 AM 21.2 °F 13.6 °F 14.0 °F 74% 29.74 in 6.2 mi WNW 5.8 mph - N/A Snow Light Snow Showers
2:30 AM 19.4 °F 8.6 °F 15.8 °F 86% 29.74 in 5.0 mi WNW 9.2 mph - N/A Snow Light Snow Showers
3:00 AM 21.2 °F 9.5 °F 17.6 °F 86% 29.74 in 6.2 mi NNW 11.5 mph - N/A Snow Light Snow Showers
3:30 AM 19.4 °F 7.2 °F 17.6 °F 93% 29.74 in 6.2 mi NNW 11.5 mph - N/A Snow Light Snow Showers
4:00 AM 19.4 °F 6.6 °F 15.8 °F 86% 29.74 in 6.2 mi NNW 12.7 mph - N/A   Scattered Clouds
4:30 AM 17.6 °F 5.0 °F 14.0 °F 86% 29.74 in 6.2 mi NNW 11.5 mph - N/A   Partly Cloudy
5:00 AM 17.6 °F 5.0 °F 14.0 °F 86% 29.77 in 6.2 mi NNW 11.5 mph - N/A   Partly Cloudy
5:30 AM 14.0 °F 3.9 °F 10.4 °F 86% 29.77 in 6.2 mi North 6.9 mph - N/A Snow Light Snow Showers
6:00 AM 15.8 °F 4.2 °F 12.2 °F 86% 29.77 in 6.2 mi North 9.2 mph - N/A Snow Light Snow Showers
6:30 AM 14.0 °F 8.2 °F 12.2 °F 93% 29.77 in 6.2 mi North 3.5 mph - N/A   Partly Cloudy
7:00 AM 10.4 °F -0.4 °F 8.6 °F 92% 29.77 in 6.2 mi North 6.9 mph - N/A   Partly Cloudy
7:30 AM 14.0 °F 5.1 °F 10.4 °F 86% 29.77 in 6.2 mi NNW 5.8 mph - N/A   Partly Cloudy
8:00 AM 17.6 °F 9.3 °F 14.0 °F 86% 29.77 in 6.2 mi NNW 5.8 mph - N/A   Scattered Clouds
8:30 AM 17.6 °F 10.7 °F 14.0 °F 86% 29.80 in 6.2 mi NW 4.6 mph - N/A   Scattered Clouds
9:00 AM 19.4 °F 9.5 °F 15.8 °F 86% 29.80 in 3.7 mi NNW 8.1 mph - N/A Snow Light Snow Showers
9:06 AM 19.4 °F 7.9 °F 15.8 °F 86% 29.80 in - NNW 10.4 mph - N/A Snow Light Snow Showers
9:30 AM 19.4 °F 5.5 °F 14.0 °F 80% 29.80 in 3.1 mi NNW 15.0 mph - N/A Snow Light Snow Showers
9:41 AM 19.4 °F 4.1 °F 14.0 °F 80% 29.80 in - NNW 18.4 mph - N/A Snow Light Snow Showers
10:00 AM 19.4 °F 4.1 °F 14.0 °F 80% 29.80 in - NNW 18.4 mph - N/A Snow Light Snow Showers
10:06 AM 19.4 °F 4.1 °F 14.0 °F 80% 29.80 in 1.4 mi NNW 18.4 mph - N/A Snow Light Snow Showers
10:08 AM 19.4 °F 4.1 °F 14.0 °F 80% 29.80 in 0.9 mi NNW 18.4 mph - N/A Snow Light Snow Showers
10:14 AM 19.4 °F 4.1 °F 14.0 °F 80% 29.80 in 1.0 mi NNW 18.4 mph - N/A Snow Light Snow Showers
10:17 AM 19.4 °F 4.1 °F 15.8 °F 86% 29.80 in 3.1 mi NNW 18.4 mph - N/A Snow Light Snow Showers
10:30 AM 19.4 °F 3.2 °F 12.2 °F 74% 29.83 in 6.2 mi NNW 20.7 mph - N/A Snow Light Snow Showers
11:00 AM 19.4 °F 2.5 °F 12.2 °F 74% 29.83 in 6.2 mi North 23.0 mph - N/A   Mostly Cloudy
11:30 AM 21.2 °F 4.2 °F 10.4 °F 63% 29.83 in 6.2 mi NNW 25.3 mph - N/A   Partly Cloudy
12:00 PM 21.2 °F 4.9 °F 10.4 °F 63% 29.83 in 6.2 mi NNW 23.0 mph - N/A   Partly Cloudy
12:21 PM 23.0 °F 7.2 °F 8.6 °F 54% 29.83 in 6.2 mi North 23.0 mph 35.7 mph N/A   Partly Cloudy
12:30 PM 23.0 °F 6.9 °F 8.6 °F 54% 29.83 in 6.2 mi North 24.2 mph 36.8 mph N/A   Partly Cloudy
1:00 PM 23.0 °F 7.6 °F 8.6 °F 54% 29.83 in 6.2 mi North 21.9 mph - N/A   Partly Cloudy
1:30 PM 23.0 °F 6.9 °F 3.2 °F 43% 29.83 in 6.2 mi North 24.2 mph - N/A   Partly Cloudy
2:00 PM 23.0 °F 8.3 °F 3.2 °F 43% 29.83 in 6.2 mi North 19.6 mph - N/A   Partly Cloudy
2:30 PM 23.0 °F 8.7 °F 5.0 °F 46% 29.86 in 6.2 mi North 18.4 mph - N/A   Partly Cloudy
3:00 PM 23.0 °F 9.6 °F 5.0 °F 46% 29.86 in 6.2 mi North 16.1 mph - N/A   Partly Cloudy
3:30 PM 23.0 °F 10.1 °F 5.0 °F 46% 29.89 in 6.2 mi North 15.0 mph - N/A   Partly Cloudy
4:00 PM 23.0 °F 11.1 °F 6.8 °F 50% 29.89 in 6.2 mi NNW 12.7 mph - N/A   Mostly Cloudy
4:30 PM 21.2 °F 8.3 °F 5.0 °F 50% 29.92 in 6.2 mi NNW 13.8 mph - N/A   Mostly Cloudy
5:00 PM 21.2 °F 8.3 °F 8.6 °F 58% 29.92 in 2.8 mi NNW 13.8 mph - N/A Snow Light Snow Showers
5:09 PM 21.2 °F 8.9 °F 12.2 °F 68% 29.92 in - NNW 12.7 mph - N/A Snow Light Snow Showers
5:12 PM 21.2 °F 8.9 °F 14.0 °F 74% 29.92 in 1.4 mi NNW 12.7 mph - N/A Snow Light Snow Showers
5:15 PM 19.4 °F 6.6 °F 14.0 °F 80% 29.95 in 0.9 mi NNW 12.7 mph - N/A Snow Light Snow Showers
5:23 PM 19.4 °F 6.6 °F 15.8 °F 86% 29.95 in 0.9 mi NNW 12.7 mph - N/A Snow Light Snow Showers
5:30 PM 19.4 °F 7.9 °F 15.8 °F 86% 29.95 in 0.9 mi NNW 10.4 mph - N/A Snow Light Snow Showers
5:36 PM 19.4 °F 7.9 °F 15.8 °F 86% 29.95 in 0.9 mi NW 10.4 mph - N/A Snow Light Snow Showers
6:00 PM 19.4 °F 10.4 °F 15.8 °F 86% 29.95 in 0.9 mi NW 6.9 mph - N/A Snow Light Snow Showers
6:30 PM 19.4 °F 12.8 °F 17.6 °F 93% 29.95 in 0.7 mi NW 4.6 mph - N/A Snow Light Snow Showers
6:41 PM 19.4 °F 12.8 °F 15.8 °F 86% 29.98 in 0.9 mi NW 4.6 mph - N/A Snow Light Snow Showers
7:00 PM 19.4 °F 12.8 °F 17.6 °F 93% 29.95 in 0.5 mi WNW 4.6 mph - N/A Snow Snow Showers
7:04 PM 19.4 °F 12.8 °F 17.6 °F 93% 29.98 in 0.5 mi WNW 4.6 mph - N/A Snow Snow Showers
7:11 PM 19.4 °F 12.8 °F 17.6 °F 93% 29.98 in 0.6 mi NW 4.6 mph - N/A Snow Light Snow Showers
7:19 PM 19.4 °F 11.5 °F 17.6 °F 93% 29.98 in 0.6 mi WNW 5.8 mph - N/A Snow Snow Showers
7:23 PM 19.4 °F 10.4 °F 17.6 °F 93% 29.98 in 0.3 mi WNW 6.9 mph - N/A Snow Snow Showers
7:25 PM 19.4 °F 10.4 °F 17.6 °F 93% 29.98 in 0.3 mi WNW 6.9 mph - N/A Snow Snow Showers
7:30 PM 19.4 °F 12.8 °F 17.6 °F 93% 29.95 in 0.4 mi NNW 4.6 mph - N/A Snow Snow Showers
7:37 PM 19.4 °F 12.8 °F 17.6 °F 93% 29.98 in 0.5 mi North 4.6 mph - N/A Snow Snow Showers
8:00 PM 19.4 °F 12.8 °F 15.8 °F 86% 29.98 in 0.2 mi NNW 4.6 mph - N/A Snow Snow Showers
8:04 PM 19.4 °F 12.8 °F 15.8 °F 86% 29.98 in 0.3 mi NNW 4.6 mph - N/A Snow Snow Showers
8:08 PM 19.4 °F 14.3 °F 15.8 °F 86% 29.98 in 0.6 mi NNW 3.5 mph - N/A Snow Light Snow Showers
8:30 PM 19.4 °F 12.8 °F 17.6 °F 93% 29.98 in 0.7 mi NW 4.6 mph - N/A Snow Light Snow Showers
8:48 PM 19.4 °F - 17.6 °F 93% 29.98 in 0.7 mi WNW 1.2 mph - N/A Snow Light Snow Showers
9:00 PM 17.6 °F - 17.6 °F 100% 29.98 in 1.4 mi NNW 2.3 mph - N/A Snow Light Snow Showers
9:14 PM 17.6 °F - 15.8 °F 93% 29.98 in 0.9 mi Variable 2.3 mph - N/A Snow Light Snow Showers
9:16 PM 19.4 °F - 17.6 °F 93% 29.98 in 0.6 mi Variable 2.3 mph - N/A Snow Snow Showers
9:30 PM 17.6 °F 10.7 °F 17.6 °F 100% 29.98 in 0.5 mi West 4.6 mph - N/A Snow Snow Showers
9:48 PM 19.4 °F 12.8 °F 17.6 °F 93% 29.98 in 0.6 mi WSW 4.6 mph - N/A Snow Light Snow Showers
10:00 PM 19.4 °F - 17.6 °F 93% 29.98 in 1.4 mi Variable 2.3 mph - N/A Snow Light Snow Showers
10:12 PM 19.4 °F - 17.6 °F 93% 29.98 in 1.5 mi Variable 1.2 mph - N/A Snow Light Snow Showers
10:21 PM 19.4 °F - 15.8 °F 86% 29.98 in 1.4 mi North 2.3 mph - N/A Snow Light Snow Showers
10:23 PM 19.4 °F 14.3 °F 15.8 °F 86% 29.98 in 0.6 mi North 3.5 mph - N/A Snow Snow Showers
10:30 PM 19.4 °F 12.8 °F 17.6 °F 93% 29.98 in 0.3 mi North 4.6 mph - N/A Snow Snow Showers
10:48 PM 19.4 °F 12.8 °F 17.6 °F 93% 29.98 in 0.6 mi NNW 4.6 mph - N/A Snow Light Snow Showers
11:00 PM 19.4 °F 11.5 °F 15.8 °F 86% 29.98 in 0.9 mi NNW 5.8 mph - N/A Snow Light Snow Showers
11:30 PM 17.6 °F 8.2 °F 15.8 °F 93% 30.01 in 2.5 mi NNW 6.9 mph - N/A Snow Light Snow Showers